Regional Weather Roundup
Issued by NWS

Home | Current Version | Previous Version | Text Only | Print | Product List | Glossary Off
Versions: 1 2 3 4 5 6 7 8 9 10 11 12 13 14 15 16 17 18 19 20 21 22 23 24 25 26 27 28 29 30 31 32 33 34 35 36 37 38 39 40 41 42 43 44 45 46 47 48 49 50

000
ASUS43 KBIS 301510
RWRND

NORTH DAKOTA REGIONAL WEATHER ROUNDUP
NATIONAL WEATHER SERVICE BISMARCK ND
1000 AM CDT TUE JUN 30 2015

NOTE: "FAIR" INDICATES FEW OR NO CLOUDS BELOW 12,000 FEET WITH NO
SIGNIFICANT WEATHER AND/OR OBSTRUCTIONS TO VISIBILITY.


NDZ001>003-009>011-017-301600-
NORTHWEST NORTH DAKOTA

CITY           SKY/WX    TMP DP  RH WIND       PRES   REMARKS
WILLISTON      PTSUNNY   75  60  59 NE9       29.94S HAZE
MINOT          CLOUDY    65  62  90 CALM      29.94R FOG
MINOT AFB      LGT RAIN  64  64 100 E8        29.94R
$$

NDZ018>021-031>035-040>046-301600-
SOUTHWEST NORTH DAKOTA

CITY           SKY/WX    TMP DP  RH WIND       PRES   REMARKS
BISMARCK       LGT RAIN  67  63  87 E7        29.97R
DICKINSON      CLOUDY    70  63  78 E8        29.94S
GARRISON         N/A     67  65  93 CALM      29.96R
HETTINGER ARPT CLOUDY    69  60  73 SE14      29.94F
$$

NDZ004>008-012>016-024-026-027-054-301600-
NORTHEAST NORTH DAKOTA

CITY           SKY/WX    TMP DP  RH WIND       PRES   REMARKS
GRAND FORKS    CLOUDY    65  60  84 CALM      29.96F
GRND FRKS AFB  MOSUNNY   64  61  88 SE2       29.96F
DEVILS LAKE    CLOUDY    64  57  77 SE6       29.96F
$$

NDZ022-023-025-028>030-036>039-047>053-301600-
SOUTHEAST NORTH DAKOTA

CITY           SKY/WX    TMP DP  RH WIND       PRES   REMARKS
FARGO          PTSUNNY   68  62  81 CALM      29.96F
JAMESTOWN      CLOUDY    66  60  81 SE5       29.96R
$$




USA.gov is the U.S. government's official web portal to all federal, state and local government web resources and services.